Flag for U.S.A. Weather past 2 weeks in Kilgore, Texas, U.S.A.

Now
73 °F

Sunny.


Feels Like: 77 °F
Forecast: 58 / 82 °F
Wind: 5 mph from Southeast

Location: Gregg County Airport

Current Time: Sep 23, 2014 at 11:58:41 AM

Latest Report: Sep 23, 2014 at 10:53 AM


Visibility: 10 mi

Pressure: 30.19 "Hg

Humidity: 50%

Dew point: 53 °F

Location of KilgoreLocation

Historic Weather in Kilgore — Graph

°F

Kilgore temperature yesterday

Maximum temperature yesterday: 87 °F (at 2:53 PM)
Minimum temperature yesterday: 67 °F (at 11:53 PM)
Average temperature yesterday: 77 °F

Past Weeks' High & Low Weather Summary

 TemperatureHumidityPressure
High96 °F (Sep 10, 3:53 PM)94% (Sep 12, 2:53 AM)30.24 "Hg (Sep 12, 2:53 AM)
Low57 °F (Sep 23, 5:53 AM)29% (Sep 22, 3:53 PM)29.78 "Hg (Sep 10, 5:53 PM)
Average78 °F71%30.00 "Hg
* Reported Sep 8 9:53 AM — Sep 23 9:53 AM, Kilgore, Weather by CustomWeather, © 2014

Note: Actual official high and low records may vary slightly from our data, if they occured in-between our weather recording intervals... More about our weather records

Advertising

Kilgore weather history for previous 24 hours

 ConditionsComfort  
Time TempWeatherWind HumidityBarometerVisibility
9:53 AM
Sep 23
70 °FSunny.8 mph57%30.19 "Hg10 mi
8:53 AM65 °FSunny.6 mph68%30.18 "Hg10 mi
7:53 AM58 °FClear.3 mph84%30.17 "Hg10 mi
6:53 AM59 °FClear.No wind78%30.16 "Hg10 mi
5:53 AM57 °FClear.No wind87%30.15 "Hg10 mi
4:53 AM60 °FClear.No wind78%30.14 "Hg10 mi
3:53 AM59 °FClear.No wind81%30.14 "Hg10 mi
2:53 AM63 °FClear.No wind70%30.14 "Hg10 mi
1:53 AM62 °FClear.3 mph75%30.14 "Hg10 mi
12:53 AM65 °FClear.5 mph68%30.13 "Hg10 mi
11:53 PM
Sep 22
67 °FClear.8 mph61%30.14 "Hg10 mi
10:53 PM68 °FClear.6 mph59%30.14 "Hg10 mi
9:53 PM71 °FClear.7 mph51%30.13 "Hg10 mi
8:53 PM73 °FClear.7 mph46%30.11 "Hg10 mi
7:53 PM76 °FSunny.7 mph42%30.09 "Hg10 mi
6:53 PM80 °FSunny.5 mph35%30.08 "Hg10 mi
5:53 PM84 °FSunny.8 mph29%30.07 "Hg10 mi
4:53 PM86 °FSunny.10 mph29%30.07 "Hg10 mi
3:53 PM86 °FSunny.7 mph29%30.08 "Hg10 mi
2:53 PM87 °FSunny.10 mph31%30.09 "Hg10 mi
1:53 PM83 °FSunny.N/A37%30.12 "Hg10 mi
12:53 PM83 °FSunny.8 mph37%30.14 "Hg10 mi
11:53 AM81 °FSunny.10 mph38%30.15 "Hg10 mi
Weather by CustomWeather, © 2014

See weather overviewHow to use our weather pages